TimeMST,TemperatureF,Dew PointF,Humidity,Sea Level PressureIn,VisibilityMPH,Wind Direction,Wind SpeedMPH,Gust SpeedMPH,PrecipitationIn,Events,Conditions,WindDirDegrees,DateUTC
12:12 AM,14.0,8.6,79,29.79,10.0,SW,11.5,-,N/A,,Clear,220,2013-02-23 07:12:00
12:34 AM,14.0,6.8,73,29.78,10.0,SSW,10.4,-,N/A,,Clear,210,2013-02-23 07:34:00
12:54 AM,14.0,6.8,73,29.78,10.0,SW,10.4,-,N/A,,Clear,220,2013-02-23 07:54:00
1:14 AM,14.0,5.0,67,29.77,10.0,SW,13.8,-,N/A,,Clear,220,2013-02-23 08:14:00
1:34 AM,14.0,3.2,62,29.76,10.0,SW,11.5,-,N/A,,Clear,230,2013-02-23 08:34:00
1:54 AM,14.0,3.2,62,29.75,10.0,SW,10.4,-,N/A,,Clear,220,2013-02-23 08:54:00
2:14 AM,14.0,1.4,57,29.74,10.0,SW,10.4,-,N/A,,Clear,220,2013-02-23 09:14:00
2:29 AM,14.0,1.4,57,29.73,10.0,SW,10.4,-,N/A,,Clear,230,2013-02-23 09:29:00
2:53 AM,14.0,1.4,57,29.73,10.0,SW,10.4,-,N/A,,Clear,230,2013-02-23 09:53:00
3:14 AM,14.0,-0.4,53,29.72,10.0,WSW,10.4,-,N/A,,Clear,240,2013-02-23 10:14:00
3:34 AM,12.2,-0.4,57,29.71,10.0,WSW,11.5,-,N/A,,Clear,240,2013-02-23 10:34:00
3:50 AM,14.0,-0.4,53,29.71,10.0,SW,10.4,-,N/A,,Clear,230,2013-02-23 10:50:00
4:13 AM,14.0,-0.4,53,29.71,10.0,SW,9.2,-,N/A,,Clear,230,2013-02-23 11:13:00
4:34 AM,14.0,-0.4,53,29.71,10.0,SW,10.4,-,N/A,,Clear,230,2013-02-23 11:34:00
5:10 AM,15.8,-0.4,49,29.70,10.0,SW,11.5,-,N/A,,Clear,230,2013-02-23 12:10:00
5:34 AM,17.6,1.4,49,29.70,10.0,SW,9.2,-,N/A,,Clear,220,2013-02-23 12:34:00
5:54 AM,15.8,1.4,53,29.70,10.0,SW,10.4,-,N/A,,Clear,230,2013-02-23 12:54:00
6:14 AM,15.8,1.4,53,29.69,10.0,SSW,11.5,-,N/A,,Clear,210,2013-02-23 13:14:00
6:30 AM,12.2,1.4,62,29.69,10.0,SSW,9.2,-,N/A,,Clear,200,2013-02-23 13:30:00
6:54 AM,14.0,3.2,62,29.68,10.0,SSW,10.4,-,N/A,,Clear,200,2013-02-23 13:54:00
7:14 AM,14.0,3.2,62,29.68,10.0,SSW,9.2,-,N/A,,Clear,210,2013-02-23 14:14:00
7:31 AM,17.6,1.4,49,29.70,10.0,SW,10.4,-,N/A,,Clear,220,2013-02-23 14:31:00
7:49 AM,15.8,3.2,58,29.70,10.0,SSW,8.1,-,N/A,,Clear,210,2013-02-23 14:49:00
8:14 AM,21.2,5.0,50,29.71,10.0,SW,12.7,-,N/A,,Clear,220,2013-02-23 15:14:00
8:34 AM,24.8,6.8,46,29.70,10.0,SSW,5.8,-,N/A,,Clear,210,2013-02-23 15:34:00
8:54 AM,26.6,8.6,47,29.71,10.0,SW,6.9,-,N/A,,Clear,220,2013-02-23 15:54:00
9:14 AM,28.4,8.6,43,29.70,10.0,SW,8.1,-,N/A,,Clear,220,2013-02-23 16:14:00
9:34 AM,30.2,12.2,47,29.71,10.0,SW,8.1,-,N/A,,Clear,220,2013-02-23 16:34:00
9:50 AM,32.0,12.2,44,29.70,10.0,SW,6.9,-,N/A,,Clear,220,2013-02-23 16:50:00
10:09 AM,32.0,15.8,51,29.70,10.0,SSW,4.6,-,N/A,,Clear,200,2013-02-23 17:09:00
10:34 AM,35.6,14.0,41,29.69,10.0,South,3.5,-,N/A,,Clear,190,2013-02-23 17:34:00
10:51 AM,35.6,17.6,48,29.68,10.0,South,6.9,-,N/A,,Clear,190,2013-02-23 17:51:00
11:14 AM,35.6,19.4,52,29.67,10.0,South,6.9,-,N/A,,Clear,170,2013-02-23 18:14:00
11:31 AM,35.6,17.6,48,29.66,10.0,South,9.2,-,N/A,,Clear,170,2013-02-23 18:31:00
11:54 AM,37.4,19.4,48,29.66,10.0,South,8.1,-,N/A,,Clear,170,2013-02-23 18:54:00
12:14 PM,39.2,19.4,45,29.64,10.0,South,9.2,-,N/A,,Clear,170,2013-02-23 19:14:00
12:34 PM,39.2,17.6,42,29.63,10.0,South,9.2,-,N/A,,Clear,170,2013-02-23 19:34:00
12:54 PM,37.4,17.6,45,29.62,10.0,South,9.2,-,N/A,,Clear,190,2013-02-23 19:54:00
1:14 PM,37.4,15.8,41,29.60,10.0,South,11.5,-,N/A,,Clear,170,2013-02-23 20:14:00
1:32 PM,37.4,19.4,48,29.59,10.0,SSW,15.0,21.9,N/A,,Clear,200,2013-02-23 20:32:00
1:49 PM,39.2,21.2,49,29.58,10.0,SSW,13.8,-,N/A,,Clear,200,2013-02-23 20:49:00
2:14 PM,41.0,19.4,42,29.57,10.0,SSW,11.5,-,N/A,,Clear,200,2013-02-23 21:14:00
2:34 PM,39.2,19.4,45,29.57,10.0,South,13.8,-,N/A,,Clear,190,2013-02-23 21:34:00
2:54 PM,37.4,19.4,48,29.57,10.0,South,12.7,-,N/A,,Clear,180,2013-02-23 21:54:00
3:14 PM,35.6,19.4,52,29.57,10.0,SSE,12.7,-,N/A,,Clear,160,2013-02-23 22:14:00
3:32 PM,35.6,21.2,56,29.57,10.0,South,13.8,17.3,N/A,,Clear,170,2013-02-23 22:32:00
3:49 PM,35.6,21.2,56,29.56,10.0,South,15.0,-,N/A,,Clear,180,2013-02-23 22:49:00
4:14 PM,35.6,23.0,60,29.57,10.0,South,11.5,-,N/A,,Clear,190,2013-02-23 23:14:00
4:34 PM,35.6,23.0,60,29.56,10.0,South,12.7,-,N/A,,Clear,180,2013-02-23 23:34:00
4:54 PM,33.8,23.0,65,29.56,10.0,South,6.9,-,N/A,,Clear,180,2013-02-23 23:54:00
5:10 PM,33.8,21.2,60,29.57,10.0,South,9.2,-,N/A,,Clear,190,2013-02-24 00:10:00
5:54 PM,30.2,19.4,64,29.57,10.0,SW,8.1,-,N/A,,Clear,220,2013-02-24 00:54:00
6:13 PM,28.4,19.4,69,29.58,10.0,WSW,8.1,-,N/A,,Clear,240,2013-02-24 01:13:00
6:34 PM,30.2,19.4,64,29.58,10.0,SW,8.1,-,N/A,,Clear,220,2013-02-24 01:34:00
6:54 PM,28.4,19.4,69,29.59,10.0,WSW,5.8,-,N/A,,Clear,240,2013-02-24 01:54:00
7:11 PM,28.4,21.2,74,29.60,10.0,West,6.9,-,N/A,,Scattered Clouds,270,2013-02-24 02:11:00
7:33 PM,30.2,21.2,69,29.59,10.0,South,3.5,-,N/A,,Overcast,190,2013-02-24 02:33:00
7:54 PM,32.0,21.2,64,29.58,10.0,South,9.2,-,N/A,,Overcast,170,2013-02-24 02:54:00
8:14 PM,32.0,19.4,60,29.60,10.0,West,8.1,26.5,N/A,,Overcast,270,2013-02-24 03:14:00
8:34 PM,28.4,24.8,86,29.62,10.0,WNW,5.8,-,N/A,,Overcast,300,2013-02-24 03:34:00
8:54 PM,26.6,23.0,86,29.62,7.0,WNW,4.6,-,N/A,,Overcast,290,2013-02-24 03:54:00
9:14 PM,26.6,24.8,93,29.63,7.0,WNW,13.8,18.4,N/A,,Overcast,300,2013-02-24 04:14:00
9:51 PM,26.6,23.0,86,29.63,7.0,WNW,6.9,-,N/A,,Overcast,290,2013-02-24 04:51:00
10:13 PM,26.6,23.0,86,29.61,7.0,WNW,5.8,-,N/A,,Overcast,300,2013-02-24 05:13:00
10:31 PM,26.6,21.2,80,29.62,10.0,WNW,9.2,-,N/A,,Overcast,300,2013-02-24 05:31:00
10:52 PM,23.0,21.2,93,29.62,7.0,WNW,9.2,-,N/A,,Mostly Cloudy,290,2013-02-24 05:52:00
11:14 PM,23.0,21.2,93,29.61,10.0,NW,12.7,-,N/A,,Mostly Cloudy,310,2013-02-24 06:14:00
11:33 PM,23.0,21.2,93,29.62,10.0,NW,16.1,-,N/A,,Mostly Cloudy,310,2013-02-24 06:33:00
11:53 PM,24.8,23.0,93,29.63,10.0,NNW,12.7,-,N/A,,Overcast,330,2013-02-24 06:53:00